Location: Madrid
(40.4000°N, 3.6830°W)
Time: 21:10:07
(UTC+01:00)

ISS - Pass Details

Date: 21 March 2017
Orbit: 399 x 409 km, 51.6° (Epoch: 24 March)

Event Time Altitude Azimuth Distance (km) Brightness Sun altitude
Exits shadow 04:36:46 14° 50° (NE) 1,258 -0.6 -30.0°
Drops below altitude 10° 04:37:39 10° 63° (ENE) 1,473 -0.1 -29.8°
Sets 04:40:13 0° 84° (E) 2,333 1.0 -29.4°
